Regional Weather Roundup
Issued by NWS

Home | Current Version | Previous Version | Graphics & Text | Print | Product List | Glossary Off
Versions: 1 2 3 4 5 6 7 8 9 10 11 12 13 14 15 16 17 18 19 20 21 22 23 24 25 26 27 28 29 30 31 32 33 34 35 36 37 38 39 40 41 42 43 44 45 46 47 48 49 50

000
ASUS45 KSLC 271310
RWRUT

UTAH REGIONAL WEATHER ROUNDUP
NATIONAL WEATHER SERVICE SALT LAKE CITY UT
600 AM MST THU NOV 27 2014

UTZ001>011-023>025-271400-

NORTHERN UTAH

CITY           SKY/WX    TMP DP  RH WIND       PRES   REMARKS
BRIGHAM CITY   MOCLDY    46  25  44 CALM      30.29F
HILL AFB       MOCLDY    43  24  48 SE10      30.29F
LOGAN          CLEAR     31  26  82 NE3       30.27F
OGDEN          MOCLDY    40  26  57 S10       30.28F WCI  33
PROVO AIRPORT  PTCLDY    30  23  74 CALM      30.37S
SALT LAKE CITY MOCLDY    46  26  45 SE16      30.28F
VERNAL         MOCLDY    27  21  78 NW5       30.40S WCI  22
WENDOVER       CLOUDY    34  27  75 W5        30.28S WCI  30
HEBER CITY     CLEAR     23  21  93 CALM      30.39F
WEST JORDAN    CLEAR     43  30  61 S18       30.31F

$$

UTZ012>022-026-027-271400-

SOUTHERN/CENTRAL UTAH

CITY           SKY/WX    TMP DP  RH WIND       PRES   REMARKS
BLANDING       PTCLDY    33  20  58 CALM      30.52S
BRYCE CANYON   MOCLDY    21  11  65 W10       30.50F WCI  10
CEDAR CITY     PTCLDY    26  18  71 CALM      30.39F
DELTA          MOCLDY    32  26  79 NE6       30.37S WCI  26
MILFORD        CLOUDY    31  19  61 S9        30.37  WCI  23
MOAB/CYNLANDS  CLEAR     28  18  66 CALM      30.43F
PRICE          MOCLDY    31  21  66 NE10      30.43F WCI  22
ST GEORGE      SUNNY     36  16  44 CALM      30.39S

$$

REGIONAL REPORTS     COLORADO/ARIZONA

CITY           SKY/WX    TMP DP  RH WIND       PRES   REMARKS
CRAIG, CO      CLOUDY    24  21  88 W3        30.40F
GRAND JUNCTION PTCLDY    21  20  96 E3        30.46S
RIFLE          PTCLDY    22  19  89 CALM      30.51R
MONTROSE       PTCLDY    25  20  81 S7        30.51R WCI  17
CORTEZ         CLEAR     19  15  84 E7        30.47S WCI  10
PAGE, AZ       MOCLDY    37  17  44 CALM      30.44R
GRAND CANYON   PTCLDY    16   7  67 CALM      30.46S
KINGMAN        PTCLDY    43  17  35 NE6       30.30R
FLAGSTAFF      PTCLDY    24  12  60 CALM      30.46S

$$

REGIONAL REPORTS    NEVADA/IDAHO/WYOMING

CITY           SKY/WX    TMP DP  RH WIND       PRES   REMARKS
LAS VEGAS, NV  CLEAR     46  18  32 SW6       30.26S
ELY            PTCLDY    26  14  60 S9        30.40F WCI  17
ELKO           CLOUDY    31  28  89 W3        30.29F
POCATELLO, ID  CLEAR     51  26  37 S7        30.18F
BURLEY         CLOUDY    47  29  49 SW12      30.18S
EVANSTON, WY   MOCLDY    35  21  56 SW20      30.32F WCI  24
ROCK SPRINGS   MOCLDY    35  19  52 E6        30.31F WCI  30

$$



USA.gov is the U.S. government's official web portal to all federal, state and local government web resources and services.